[[{"header":{"parameterUnit":"m.s-1","parameterCategory":1,"la1":30.2991,"la2":30.254,"lo1":-89.0895,"lo2":-89.0444,"dy":0.0017,"dx":0.0017,"nx":28,"ny":28,"refTime":"2024-08-15T09:00:00:Z","depth":0,"parameterNumber":2,"parameterNumberName":"U-component_of_WINDS"},"data":[0,0,0,0,0,0,0,0,0,0,0,0,0,0,0,0,0,0,0,0,0,0,0,0,0,0,0,0,0,0,0,0,0,0,0,0,0,0,0,0,0,0,0,0,0,0,0,0,0,0,0,0,0,0,0,0,0,0,-2.1361,-2.1361,0,-2.1376,-2.1376,-2.1376,-2.1339,-2.1338,-2.1337,-2.1336,-2.1353,-2.1354,-2.1356,0,0,0,0,0,0,0,0,0,0,0,0,0,-2.1302,-2.1303,-2.1361,-2.1361,-2.1361,-2.1376,-2.1376,-2.1377,-2.1339,-2.1338,-2.1336,-2.1335,-2.1352,-2.1354,-2.1356,0,0,0,0,0,0,0,0,0,0,0,0,0,-2.1324,-2.1304,-2.1361,-2.1345,-2.1343,-2.1376,-2.1376,-2.1377,-2.134,-2.1338,-2.1336,-2.1334,-2.1352,-2.1354,-2.1356,-2.1406,0,0,-2.1363,-2.1364,0,0,0,0,0,0,0,0,-2.1322,-2.1326,-2.1347,-2.1346,-2.1344,-2.1354,-2.1362,-2.1386,-2.134,-2.1341,-2.1336,-2.1334,-2.1355,-2.1357,-2.1363,-2.1407,-2.1407,-2.1363,-2.1365,-2.1366,-2.1366,0,0,0,0,0,0,0,-2.1321,-2.1325,-2.1367,-2.1347,-2.1346,-2.1337,-2.1338,-2.1366,-2.1358,-2.1341,-2.1338,-2.134,-2.1354,-2.1361,-2.1363,-2.1408,-2.1363,-2.1365,-2.1367,-2.1368,-2.1494,-2.1496,0,0,0,0,0,0,-2.1321,-2.1324,-2.1366,-2.1367,-2.1329,-2.134,-2.1341,-2.1353,-2.1357,-2.1356,-2.1342,-2.1339,-2.1358,-2.1361,-2.1364,-2.1423,-2.1366,-2.1368,-2.1369,-2.1492,-2.1494,-2.1496,0,0,0,0,0,0,-2.132,-2.1325,-2.1366,-2.1345,-2.1349,-2.1343,-2.1356,-2.1354,-2.1361,-2.1358,-2.1356,-2.1351,-2.1357,-2.1361,-2.1396,-2.1423,-2.1369,-2.1371,-2.1489,-2.1492,-2.1495,-2.1541,0,0,0,0,0,0,-2.1319,-2.1325,-2.1343,-2.1346,-2.1351,-2.1397,-2.1358,-2.1355,-2.1365,-2.1361,-2.1366,-2.1365,-2.1356,-2.1393,-2.1398,-2.1425,-2.1373,-2.1487,-2.1491,-2.1494,-2.1537,-2.1545,-2.1552,0,0,0,0,0,-2.1317,-2.1356,-2.1345,-2.135,-2.1373,-2.1399,-2.1402,-2.1389,-2.1368,-2.1386,-2.1384,-2.1365,-2.1419,-2.1396,-2.1402,-2.1431,-2.1485,-2.149,-2.1494,-2.1534,-2.1544,-2.1552,0,0,0,0,0,0,-2.1357,-2.1356,-2.1343,-2.1384,-2.1392,-2.1392,-2.1415,-2.14,-2.1414,-2.141,-2.1394,-2.1396,-2.1434,-2.1436,-2.1411,-2.148,-2.1449,-2.1454,-2.1477,-2.1486,-2.1494,-2.1492,-2.1375,0,0,0,0,0,-2.1371,-2.1391,-2.1389,-2.1426,-2.143,-2.1422,-2.1433,-2.1423,-2.143,-2.1433,-2.1434,-2.1442,-2.1461,-2.1474,-2.1491,-2.1537,-2.1538,-2.156,-2.1567,-2.1574,-2.1579,-2.1604,-2.1614,-2.1511,-2.1511,-2.1511,0,0,-2.14,-2.1401,-2.1415,-2.1434,-2.1438,-2.146,-2.1425,-2.145,-2.1466,-2.1437,-2.147,-2.1471,-2.148,-2.1521,-2.1539,-2.1523,-2.1608,-2.1579,-2.1584,-2.1586,-2.161,-2.1619,-2.1628,-2.1514,-2.1513,-2.1513,0,0,-2.1463,-2.1466,-2.1497,-2.1503,-2.151,-2.1505,-2.1512,-2.1515,-2.1515,-2.1548,-2.1527,-2.1547,-2.1579,-2.1586,-2.1594,-2.1662,-2.1645,-2.1668,-2.1707,-2.1732,-2.174,-2.1747,-2.1771,-2.178,-2.1673,-2.1673,-2.1673,0,-2.1498,-2.1529,-2.1515,-2.1541,-2.155,-2.1525,-2.1557,-2.1563,-2.1576,-2.1584,-2.1566,-2.1607,-2.1611,-2.1654,-2.167,-2.1677,-2.1686,-2.1667,-2.174,-2.1747,-2.1753,-2.1776,-2.1785,-2.1676,-2.1675,-2.1675,-2.1675,0,-2.1572,-2.1594,-2.1618,-2.1631,-2.1643,-2.1672,-2.1663,-2.1677,-2.1666,-2.1663,-2.1698,-2.1702,-2.172,-2.1729,-2.1719,-2.1771,-2.1761,-2.1742,-2.1711,-2.1766,-2.1787,-2.1796,-2.168,-2.1679,-2.1678,-2.1677,0,0,-2.166,-2.1665,-2.1675,-2.168,-2.1687,-2.1705,-2.1733,-2.175,-2.1763,-2.1773,-2.1796,-2.1825,-2.1808,-2.1817,-2.1807,-2.1829,-2.1883,-2.1808,-2.1808,-2.1821,-2.1941,-2.1955,-2.1966,-2.1872,-2.1874,-2.1875,-2.194,0,-2.1723,-2.177,-2.1759,-2.1806,-2.1827,-2.1804,-2.1829,-2.1836,-2.1835,-2.1853,-2.1851,-2.1872,-2.1847,-2.1852,-2.1873,-2.1872,-2.1907,-2.1867,-2.1894,-2.1896,-2.1893,-2.1977,-2.1992,-2.2053,-2.1949,-2.195,-2.1951,0,-2.1802,-2.1815,-2.1864,-2.1868,-2.1877,-2.1899,-2.1914,-2.1931,-2.194,-2.1937,-2.1948,-2.1934,-2.1963,-2.1932,-2.1972,-2.1945,-2.1956,-2.1958,-2.196,-2.1961,-2.1926,-2.1981,-2.2072,-2.2082,-2.1964,-2.1963,-2.1962,0,-2.1862,-2.1892,-2.1925,-2.1931,-2.1936,-2.1953,-2.1956,-2.1963,-2.1974,-2.1988,-2.1995,-2.2012,-2.2021,-2.2035,-2.2027,-2.2005,-2.2069,-2.2037,-2.2068,-2.2068,-2.2082,-2.2081,-2.2177,-2.2089,-2.2089,-2.2089,-2.2089,0,-2.1933,-2.1964,-2.1952,-2.1973,-2.2007,-2.1995,-2.2029,-2.203,-2.2036,-2.2057,-2.2039,-2.2059,-2.2048,-2.2067,-2.2061,-2.2096,-2.21,-2.2099,-2.2097,-2.2101,-2.2101,-2.2107,-2.2103,-2.2092,-2.2091,-2.2091,-2.209,0,-2.2005,-2.1998,-2.2033,-2.2036,-2.2037,-2.2063,-2.2065,-2.2085,-2.2082,-2.2109,-2.2115,-2.2111,-2.2133,-2.2126,-2.2151,-2.2147,-2.219,-2.2183,-2.2187,-2.2185,-2.2217,-2.2214,-2.2319,-2.2333,-2.2237,-2.2238,-2.2239,0,-2.2051,-2.2074,-2.2079,-2.2092,-2.2096,-2.2117,-2.2128,-2.2117,-2.213,-2.2142,-2.216,-2.2181,-2.2196,-2.2233,-2.2233,-2.2252,-2.2245,-2.228,-2.2247,-2.225,-2.2245,-2.2244,-2.2247,-2.2287,-2.2288,-2.2289,-2.2289,0,-2.2133,-2.2128,-2.2145,-2.2161,-2.2175,-2.2187,-2.2198,-2.221,-2.2199,-2.2215,-2.2237,-2.2249,-2.2274,-2.2295,-2.2312,-2.2316,-2.2302,-2.23,-2.2308,-2.2312,-2.2314,-2.2313,-2.2205,-2.2297,-2.2297,-2.2296,-2.2296,-2.2295,-2.2193,-2.2213,-2.222,-2.224,-2.2246,-2.2257,-2.2276,-2.2275,-2.2293,-2.2312,-2.2305,-2.2331,-2.2339,-2.2361,-2.2367,-2.2388,-2.2375,-2.2386,-2.2389,-2.2392,-2.2397,-2.231,-2.2391,-2.2391,-2.2391,-2.2391,-2.239,0,-2.2274,-2.2278,-2.2296,-2.2311,-2.2327,-2.2311,-2.2322,-2.2337,-2.2359,-2.2369,-2.2385,-2.2411,-2.2431,-2.2433,-2.2452,-2.2468,-2.2462,-2.2474,-2.2473,-2.2474,-2.2407,-2.2398,-2.2479,-2.2479,-2.2479,-2.2479,-2.2479,-2.2479,-2.2318,-2.2351,-2.2348,-2.2385,-2.2388,-2.2413,-2.242,-2.243,-2.2438,-2.2467,-2.2484,-2.2485,-2.2491,-2.2511,-2.2529,-2.2529,-2.2538,-2.2552,-2.255,-2.2487,-2.2478,-2.247,-2.2462,-2.2554,-2.2554,-2.2614,-2.2615,-2.2615]},{"header":{"parameterUnit":"m.s-1","parameterCategory":1,"la1":30.2991,"la2":30.254,"lo1":-89.0895,"lo2":-89.0444,"dy":0.0017,"dx":0.0017,"nx":28,"ny":28,"refTime":"2024-08-15T09:00:00:Z","depth":0,"parameterNumber":3,"parameterNumberName":"V-component_of_WINDS"},"data":[0,0,0,0,0,0,0,0,0,0,0,0,0,0,0,0,0,0,0,0,0,0,0,0,0,0,0,0,0,0,0,0,0,0,0,0,0,0,0,0,0,0,0,0,0,0,0,0,0,0,0,0,0,0,0,0,0,0,3.646,3.646,0,3.6453,3.6453,3.6453,3.6435,3.6434,3.6434,3.6433,3.6427,3.6427,3.6427,0,0,0,0,0,0,0,0,0,0,0,0,0,3.6458,3.6458,3.646,3.646,3.646,3.6453,3.6453,3.6453,3.6435,3.6434,3.6434,3.6433,3.6427,3.6427,3.6427,0,0,0,0,0,0,0,0,0,0,0,0,0,3.6456,3.6458,3.646,3.645,3.6449,3.6453,3.6453,3.6453,3.6435,3.6434,3.6434,3.6433,3.6427,3.6427,3.6427,3.6441,0,0,3.6428,3.6428,0,0,0,0,0,0,0,0,3.6456,3.6456,3.6452,3.6451,3.645,3.6444,3.645,3.6449,3.6435,3.644,3.6433,3.6433,3.6433,3.6433,3.6433,3.6441,3.6441,3.6428,3.6428,3.6428,3.6429,0,0,0,0,0,0,0,3.6456,3.6456,3.6457,3.6452,3.645,3.6446,3.6445,3.645,3.644,3.644,3.6438,3.6438,3.6432,3.6433,3.6433,3.644,3.6428,3.6428,3.6429,3.6429,3.6459,3.646,0,0,0,0,0,0,3.6458,3.6456,3.6458,3.6457,3.6451,3.6446,3.6445,3.6447,3.644,3.6438,3.6438,3.6437,3.6432,3.6432,3.6432,3.6448,3.6428,3.6429,3.6429,3.6459,3.646,3.646,0,0,0,0,0,0,3.6458,3.6458,3.6458,3.6456,3.6456,3.6447,3.6449,3.6447,3.6447,3.6439,3.6437,3.644,3.6432,3.6432,3.6439,3.6447,3.6429,3.6429,3.6458,3.6459,3.646,3.6479,0,0,0,0,0,0,3.6458,3.6458,3.6463,3.6457,3.6456,3.6465,3.6449,3.6447,3.6447,3.6446,3.644,3.6439,3.6431,3.6439,3.6439,3.6447,3.6429,3.6457,3.6459,3.646,3.6478,3.6481,3.6483,0,0,0,0,0,3.6458,3.6469,3.6463,3.6464,3.6462,3.6465,3.6465,3.6456,3.6448,3.6453,3.6448,3.6439,3.6447,3.644,3.644,3.6448,3.6457,3.6458,3.646,3.6477,3.648,3.6483,0,0,0,0,0,0,3.6476,3.6468,3.6461,3.6471,3.6469,3.6462,3.6468,3.646,3.6461,3.6459,3.6448,3.6447,3.6456,3.6453,3.6445,3.6462,3.645,3.6452,3.6463,3.6466,3.6469,3.6469,3.643,0,0,0,0,0,3.6481,3.6484,3.6477,3.6486,3.6485,3.6477,3.6478,3.6471,3.6469,3.6468,3.6463,3.6461,3.6463,3.6465,3.6466,3.6478,3.6476,3.6484,3.6486,3.6489,3.649,3.6496,3.6499,3.6465,3.6465,3.6465,0,0,3.6492,3.6488,3.649,3.6489,3.6487,3.649,3.6476,3.648,3.6483,3.6469,3.6475,3.6472,3.6469,3.6478,3.6482,3.6476,3.6499,3.6491,3.6492,3.6492,3.6498,3.6501,3.6504,3.6466,3.6466,3.6466,0,0,3.6513,3.651,3.6517,3.6515,3.6512,3.6507,3.6508,3.6503,3.65,3.6506,3.6496,3.6499,3.6502,3.6501,3.65,3.6522,3.6513,3.6523,3.6536,3.6542,3.6545,3.6547,3.6554,3.6557,3.6524,3.6524,3.6524,0,3.6526,3.6531,3.6522,3.6527,3.6527,3.6514,3.6521,3.652,3.6518,3.6518,3.6512,3.6516,3.6513,3.6522,3.6527,3.6527,3.6529,3.6523,3.6545,3.6547,3.6549,3.6556,3.6559,3.6525,3.6525,3.6525,3.6525,0,3.6548,3.6551,3.6557,3.6555,3.6556,3.6562,3.6554,3.6556,3.655,3.6545,3.6552,3.6548,3.6549,3.6551,3.6545,3.6559,3.6555,3.6547,3.6535,3.6554,3.656,3.6562,3.6527,3.6526,3.6526,3.6526,0,0,3.6579,3.6572,3.6574,3.6573,3.6569,3.6572,3.6578,3.6578,3.658,3.6579,3.6583,3.6587,3.658,3.6579,3.6573,3.6578,3.6595,3.657,3.657,3.6574,3.661,3.6615,3.6618,3.659,3.659,3.6591,3.661,0,3.6598,3.6607,3.6599,3.661,3.6613,3.6602,3.6607,3.6605,3.6601,3.6603,3.6599,3.6602,3.6592,3.6592,3.6597,3.6592,3.6602,3.6591,3.6594,3.6594,3.6594,3.6621,3.6627,3.6645,3.6612,3.6613,3.6613,0,3.6621,3.6621,3.6632,3.6628,3.6629,3.6633,3.6633,3.6635,3.6633,3.663,3.663,3.6623,3.6628,3.6617,3.6625,3.6617,3.6618,3.6616,3.6617,3.6616,3.6604,3.6621,3.6651,3.6653,3.6617,3.6616,3.6616,0,3.6642,3.6645,3.6652,3.6651,3.6646,3.665,3.6648,3.6645,3.6646,3.6646,3.6647,3.6648,3.6648,3.6649,3.6642,3.6635,3.665,3.6639,3.6648,3.6648,3.665,3.665,3.668,3.6653,3.6653,3.6653,3.6652,0,3.6664,3.6671,3.6661,3.6665,3.6673,3.6664,3.6672,3.6669,3.6667,3.667,3.6661,3.6665,3.6656,3.6658,3.6653,3.666,3.666,3.6658,3.6656,3.6658,3.6658,3.6658,3.6656,3.6653,3.6653,3.6653,3.6653,0,3.6688,3.6682,3.6688,3.6684,3.6682,3.6688,3.6684,3.6688,3.6683,3.6688,3.6688,3.6682,3.6685,3.6678,3.668,3.6676,3.6686,3.6683,3.6686,3.6685,3.6694,3.6693,3.6724,3.6727,3.6698,3.6699,3.6699,0,3.6702,3.6707,3.6703,3.6704,3.6703,3.6705,3.6706,3.6699,3.67,3.6698,3.6702,3.6704,3.6705,3.671,3.6705,3.6707,3.6703,3.6714,3.6703,3.6705,3.6702,3.6702,3.6702,3.6716,3.6716,3.6716,3.6717,0,3.6727,3.6724,3.6725,3.6726,3.6727,3.6727,3.6727,3.6729,3.672,3.6722,3.6725,3.6726,3.6728,3.673,3.673,3.6728,3.6721,3.672,3.6722,3.6724,3.6725,3.6724,3.6692,3.6719,3.6719,3.6719,3.6719,3.6719,3.6746,3.6749,3.6747,3.6749,3.6748,3.6748,3.6751,3.6747,3.6749,3.675,3.6746,3.6749,3.6748,3.6747,3.6747,3.6749,3.6744,3.6747,3.6748,3.6748,3.675,3.6726,3.6749,3.6749,3.6749,3.6749,3.6749,0,3.6769,3.6767,3.6769,3.6769,3.6771,3.6764,3.6764,3.6765,3.6769,3.6768,3.6769,3.6772,3.6774,3.677,3.6771,3.6774,3.6771,3.6775,3.6774,3.6774,3.6754,3.6752,3.6777,3.6777,3.6777,3.6777,3.6777,3.6777,3.6782,3.6788,3.6785,3.679,3.6789,3.6792,3.6792,3.6792,3.6791,3.6795,3.6796,3.6794,3.6792,3.6793,3.6794,3.6793,3.6794,3.6799,3.6796,3.6778,3.6775,3.6772,3.677,3.6799,3.6799,3.6815,3.6816,3.6816]}]]